owner,sensor,date,latitude,longitude,vertical_datum,sea_water_practical_salinity,qcFlag 
SCCF RECON,ioos:station:SCCF:12:1,2009-01-01T00:00:00Z,26.4966,-82.1479,2.03,31.64,1111122 
SCCF RECON,ioos:station:SCCF:12:1,2009-01-01T01:00:00Z,26.4966,-82.1479,1.99,31.58,1111122 
SCCF RECON,ioos:station:SCCF:12:1,2009-01-01T02:00:00Z,26.4966,-82.1479,1.98,31.57,1111122 
SCCF RECON,ioos:station:SCCF:12:1,2009-01-01T03:00:00Z,26.4966,-82.1479,2.0,31.66,1111122 
SCCF RECON,ioos:station:SCCF:12:1,2009-01-01T04:00:00Z,26.4966,-82.1479,2.059,31.96,1111122 
SCCF RECON,ioos:station:SCCF:12:1,2009-01-01T05:00:00Z,26.4966,-82.1479,2.167,32.25,1111122 
SCCF RECON,ioos:station:SCCF:12:1,2009-01-01T06:00:00Z,26.4966,-82.1479,2.246,32.31,1111122 
SCCF RECON,ioos:station:SCCF:12:1,2009-01-01T07:00:00Z,26.4966,-82.1479,2.273,32.34,1111122 
SCCF RECON,ioos:station:SCCF:12:1,2009-01-01T08:00:00Z,26.4966,-82.1479,2.252,32.38,1111122 
SCCF RECON,ioos:station:SCCF:12:1,2009-01-01T09:00:00Z,26.4966,-82.1479,2.211,32.37,1111122 
SCCF RECON,ioos:station:SCCF:12:1,2009-01-01T10:00:00Z,26.4966,-82.1479,2.129,32.38,1111122 
SCCF RECON,ioos:station:SCCF:12:1,2009-01-01T11:00:00Z,26.4966,-82.1479,2.031,32.35,1111122 
SCCF RECON,ioos:station:SCCF:12:1,2009-01-01T12:00:00Z,26.4966,-82.1479,1.929,32.27,1111122 
SCCF RECON,ioos:station:SCCF:12:1,2009-01-01T13:00:00Z,26.4966,-82.1479,1.835,32.33,1111122 
SCCF RECON,ioos:station:SCCF:12:1,2009-01-01T14:00:00Z,26.4966,-82.1479,1.754,32.35,1111122 
SCCF RECON,ioos:station:SCCF:12:1,2009-01-01T15:00:00Z,26.4966,-82.1479,1.695,32.42,1111122 
SCCF RECON,ioos:station:SCCF:12:1,2009-01-01T16:00:00Z,26.4966,-82.1479,1.689,32.54,1111122 
SCCF RECON,ioos:station:SCCF:12:1,2009-01-01T17:00:00Z,26.4966,-82.1479,1.795,32.52,1111122 
SCCF RECON,ioos:station:SCCF:12:1,2009-01-01T18:00:00Z,26.4966,-82.1479,1.915,32.47,1111122 
SCCF RECON,ioos:station:SCCF:12:1,2009-01-01T19:00:00Z,26.4966,-82.1479,2.023,32.45,1111122 
SCCF RECON,ioos:station:SCCF:12:1,2009-01-01T20:00:00Z,26.4966,-82.1479,2.11,32.48,1111122 
SCCF RECON,ioos:station:SCCF:12:1,2009-01-01T21:00:00Z,26.4966,-82.1479,2.184,32.18,1111122 
SCCF RECON,ioos:station:SCCF:12:1,2009-01-01T22:00:00Z,26.4966,-82.1479,2.249,31.98,1111122 
SCCF RECON,ioos:station:SCCF:12:1,2009-01-01T23:00:00Z,26.4966,-82.1479,2.253,31.94,1111122 
SCCF RECON,ioos:station:SCCF:12:1,2009-01-02T00:00:00Z,26.4966,-82.1479,2.209,31.81,1111122 
SCCF RECON,ioos:station:SCCF:12:1,2009-01-02T01:00:00Z,26.4966,-82.1479,2.128,31.82,1111122 
SCCF RECON,ioos:station:SCCF:12:1,2009-01-02T02:00:00Z,26.4966,-82.1479,2.053,31.88,1111122 
SCCF RECON,ioos:station:SCCF:12:1,2009-01-02T03:00:00Z,26.4966,-82.1479,1.993,31.86,1111122 
SCCF RECON,ioos:station:SCCF:12:1,2009-01-02T04:00:00Z,26.4966,-82.1479,1.967,31.77,1111122 
SCCF RECON,ioos:station:SCCF:12:1,2009-01-02T05:00:00Z,26.4966,-82.1479,2.018,31.7,1111122 
SCCF RECON,ioos:station:SCCF:12:1,2009-01-02T06:00:00Z,26.4966,-82.1479,2.109,31.7,1111122 
SCCF RECON,ioos:station:SCCF:12:1,2009-01-02T07:00:00Z,26.4966,-82.1479,2.183,31.7,1111122 
SCCF RECON,ioos:station:SCCF:12:1,2009-01-02T08:00:00Z,26.4966,-82.1479,2.254,31.69,1111122 
SCCF RECON,ioos:station:SCCF:12:1,2009-01-02T09:00:00Z,26.4966,-82.1479,2.29,31.64,1111122 
SCCF RECON,ioos:station:SCCF:12:1,2009-01-02T10:00:00Z,26.4966,-82.1479,2.275,31.76,1111122 
SCCF RECON,ioos:station:SCCF:12:1,2009-01-02T11:00:00Z,26.4966,-82.1479,2.227,31.75,1111122 
SCCF RECON,ioos:station:SCCF:12:1,2009-01-02T12:00:00Z,26.4966,-82.1479,2.15,31.5,1111122 
SCCF RECON,ioos:station:SCCF:12:1,2009-01-02T13:00:00Z,26.4966,-82.1479,2.06,31.42,1111122 
SCCF RECON,ioos:station:SCCF:12:1,2009-01-02T14:00:00Z,26.4966,-82.1479,1.976,31.42,1111122 
SCCF RECON,ioos:station:SCCF:12:1,2009-01-02T15:00:00Z,26.4966,-82.1479,1.908,31.47,1111122 
SCCF RECON,ioos:station:SCCF:12:1,2009-01-02T16:00:00Z,26.4966,-82.1479,1.871,31.48,1111122 
SCCF RECON,ioos:station:SCCF:12:1,2009-01-02T17:00:00Z,26.4966,-82.1479,1.869,31.54,1111122 
SCCF RECON,ioos:station:SCCF:12:1,2009-01-02T18:00:00Z,26.4966,-82.1479,1.979,31.55,1111122 
SCCF RECON,ioos:station:SCCF:12:1,2009-01-02T19:00:00Z,26.4966,-82.1479,2.095,31.62,1111122 
SCCF RECON,ioos:station:SCCF:12:1,2009-01-02T20:00:00Z,26.4966,-82.1479,2.179,31.49,1111122 
SCCF RECON,ioos:station:SCCF:12:1,2009-01-02T21:00:00Z,26.4966,-82.1479,2.235,31.54,1111122 
SCCF RECON,ioos:station:SCCF:12:1,2009-01-02T22:00:00Z,26.4966,-82.1479,2.268,31.56,1111122 
SCCF RECON,ioos:station:SCCF:12:1,2009-01-02T23:00:00Z,26.4966,-82.1479,2.26,31.51,1111122 
SCCF RECON,ioos:station:SCCF:12:1,2009-01-03T00:00:00Z,26.4966,-82.1479,2.21,31.54,1111122 
SCCF RECON,ioos:station:SCCF:12:1,2009-01-03T01:00:00Z,26.4966,-82.1479,2.15,31.56,1111122 
SCCF RECON,ioos:station:SCCF:12:1,2009-01-03T02:00:00Z,26.4966,-82.1479,2.071,31.59,1111122 
SCCF RECON,ioos:station:SCCF:12:1,2009-01-03T03:00:00Z,26.4966,-82.1479,2.01,31.63,1111122 
SCCF RECON,ioos:station:SCCF:12:1,2009-01-03T04:00:00Z,26.4966,-82.1479,1.96,31.59,1111122 
SCCF RECON,ioos:station:SCCF:12:1,2009-01-03T05:00:00Z,26.4966,-82.1479,1.94,31.57,1111122 
SCCF RECON,ioos:station:SCCF:12:1,2009-01-03T06:00:00Z,26.4966,-82.1479,1.99,31.56,1111122 
SCCF RECON,ioos:station:SCCF:12:1,2009-01-03T07:00:00Z,26.4966,-82.1479,2.08,31.54,1111122 
SCCF RECON,ioos:station:SCCF:12:1,2009-01-03T08:00:00Z,26.4966,-82.1479,2.16,31.51,1111122 
SCCF RECON,ioos:station:SCCF:12:1,2009-01-03T09:00:00Z,26.4966,-82.1479,2.22,31.53,1111122 
SCCF RECON,ioos:station:SCCF:12:1,2009-01-03T10:00:00Z,26.4966,-82.1479,2.23,31.58,1111122 
SCCF RECON,ioos:station:SCCF:12:1,2009-01-03T11:00:00Z,26.4966,-82.1479,2.22,31.57,1111122 
SCCF RECON,ioos:station:SCCF:12:1,2009-01-03T12:00:00Z,26.4966,-82.1479,2.169,31.86,1111122 
SCCF RECON,ioos:station:SCCF:12:1,2009-01-03T13:00:00Z,26.4966,-82.1479,2.109,32.02,1111122 
SCCF RECON,ioos:station:SCCF:12:1,2009-01-03T14:00:00Z,26.4966,-82.1479,2.043,32.02,1111122 
SCCF RECON,ioos:station:SCCF:12:1,2009-01-03T15:00:00Z,26.4966,-82.1479,1.979,32.05,1111122 
SCCF RECON,ioos:station:SCCF:12:1,2009-01-03T16:00:00Z,26.4966,-82.1479,1.935,32.07,1111122 
SCCF RECON,ioos:station:SCCF:12:1,2009-01-03T17:00:00Z,26.4966,-82.1479,1.926,32.07,1111122 
SCCF RECON,ioos:station:SCCF:12:1,2009-01-03T18:00:00Z,26.4966,-82.1479,1.985,32.02,1111122 
SCCF RECON,ioos:station:SCCF:12:1,2009-01-03T19:00:00Z,26.4966,-82.1479,2.088,31.97,1111122 
SCCF RECON,ioos:station:SCCF:12:1,2009-01-03T20:00:00Z,26.4966,-82.1479,2.188,31.92,1111122 
SCCF RECON,ioos:station:SCCF:12:1,2009-01-03T21:00:00Z,26.4966,-82.1479,2.277,31.97,1111122 
SCCF RECON,ioos:station:SCCF:12:1,2009-01-03T22:00:00Z,26.4966,-82.1479,2.331,32.08,1111122 
SCCF RECON,ioos:station:SCCF:12:1,2009-01-03T23:00:00Z,26.4966,-82.1479,2.345,32.07,1111122 
SCCF RECON,ioos:station:SCCF:12:1,2009-01-04T00:00:00Z,26.4966,-82.1479,2.311,32.11,1111122 
SCCF RECON,ioos:station:SCCF:12:1,2009-01-04T01:00:00Z,26.4966,-82.1479,2.24,32.32,1111122 
SCCF RECON,ioos:station:SCCF:12:1,2009-01-04T02:00:00Z,26.4966,-82.1479,2.157,32.22,1111122 
SCCF RECON,ioos:station:SCCF:12:1,2009-01-04T03:00:00Z,26.4966,-82.1479,2.071,32.26,1111122 
SCCF RECON,ioos:station:SCCF:12:1,2009-01-04T04:00:00Z,26.4966,-82.1479,2.0,32.26,1111122 
SCCF RECON,ioos:station:SCCF:12:1,2009-01-04T05:00:00Z,26.4966,-82.1479,1.937,32.26,1111122 
SCCF RECON,ioos:station:SCCF:12:1,2009-01-04T06:00:00Z,26.4966,-82.1479,1.89,32.17,1111122 
SCCF RECON,ioos:station:SCCF:12:1,2009-01-04T07:00:00Z,26.4966,-82.1479,1.891,32.03,1111122 
SCCF RECON,ioos:station:SCCF:12:1,2009-01-04T08:00:00Z,26.4966,-82.1479,1.96,32.06,1111122 
SCCF RECON,ioos:station:SCCF:12:1,2009-01-04T09:00:00Z,26.4966,-82.1479,2.047,32.05,1111122 
SCCF RECON,ioos:station:SCCF:12:1,2009-01-04T10:00:00Z,26.4966,-82.1479,2.11,32.09,1111122 
SCCF RECON,ioos:station:SCCF:12:1,2009-01-04T11:00:00Z,26.4966,-82.1479,2.16,32.16,1111122 
SCCF RECON,ioos:station:SCCF:12:1,2009-01-04T12:00:00Z,26.4966,-82.1479,2.16,32.17,1111122 
SCCF RECON,ioos:station:SCCF:12:1,2009-01-04T13:00:00Z,26.4966,-82.1479,2.13,32.12,1111122 
SCCF RECON,ioos:station:SCCF:12:1,2009-01-04T14:00:00Z,26.4966,-82.1479,2.085,32.43,1111122 
SCCF RECON,ioos:station:SCCF:12:1,2009-01-04T15:00:00Z,26.4966,-82.1479,2.034,32.51,1111122 
SCCF RECON,ioos:station:SCCF:12:1,2009-01-04T16:00:00Z,26.4966,-82.1479,1.989,32.53,1111122 
SCCF RECON,ioos:station:SCCF:12:1,2009-01-04T17:00:00Z,26.4966,-82.1479,1.982,32.5,1111122 
SCCF RECON,ioos:station:SCCF:12:1,2009-01-04T18:00:00Z,26.4966,-82.1479,2.001,32.44,1111122 
SCCF RECON,ioos:station:SCCF:12:1,2009-01-04T19:00:00Z,26.4966,-82.1479,2.042,32.37,1111122 
SCCF RECON,ioos:station:SCCF:12:1,2009-01-04T20:00:00Z,26.4966,-82.1479,2.119,32.22,1111122 
SCCF RECON,ioos:station:SCCF:12:1,2009-01-04T21:00:00Z,26.4966,-82.1479,2.221,32.21,1111122 
SCCF RECON,ioos:station:SCCF:12:1,2009-01-04T22:00:00Z,26.4966,-82.1479,2.32,32.37,1111122 
SCCF RECON,ioos:station:SCCF:12:1,2009-01-04T23:00:00Z,26.4966,-82.1479,2.36,32.33,1111122 
SCCF RECON,ioos:station:SCCF:12:1,2009-01-05T00:00:00Z,26.4966,-82.1479,2.332,32.4,1111122 
SCCF RECON,ioos:station:SCCF:12:1,2009-01-05T01:00:00Z,26.4966,-82.1479,2.27,32.42,1111122 
SCCF RECON,ioos:station:SCCF:12:1,2009-01-05T02:00:00Z,26.4966,-82.1479,2.184,32.48,1111122 
SCCF RECON,ioos:station:SCCF:12:1,2009-01-05T03:00:00Z,26.4966,-82.1479,2.077,32.47,1111122 
SCCF RECON,ioos:station:SCCF:12:1,2009-01-05T04:00:00Z,26.4966,-82.1479,1.986,32.48,1111122 
SCCF RECON,ioos:station:SCCF:12:1,2009-01-05T05:00:00Z,26.4966,-82.1479,1.897,32.48,1111122 
SCCF RECON,ioos:station:SCCF:12:1,2009-01-05T06:00:00Z,26.4966,-82.1479,1.81,32.38,1111122 
SCCF RECON,ioos:station:SCCF:12:1,2009-01-05T07:00:00Z,26.4966,-82.1479,1.747,32.17,1111122 
SCCF RECON,ioos:station:SCCF:12:1,2009-01-05T08:00:00Z,26.4966,-82.1479,1.73,32.14,1111122 
SCCF RECON,ioos:station:SCCF:12:1,2009-01-05T09:00:00Z,26.4966,-82.1479,1.8,32.2,1111122 
SCCF RECON,ioos:station:SCCF:12:1,2009-01-05T10:00:00Z,26.4966,-82.1479,1.91,32.28,1111122 
SCCF RECON,ioos:station:SCCF:12:1,2009-01-05T11:00:00Z,26.4966,-82.1479,1.994,32.34,1111122 
SCCF RECON,ioos:station:SCCF:12:1,2009-01-05T12:00:00Z,26.4966,-82.1479,2.06,32.31,1111122 
SCCF RECON,ioos:station:SCCF:12:1,2009-01-05T13:00:00Z,26.4966,-82.1479,2.09,32.14,1111122 
SCCF RECON,ioos:station:SCCF:12:1,2009-01-05T14:00:00Z,26.4966,-82.1479,2.092,32.32,1111122 
SCCF RECON,ioos:station:SCCF:12:1,2009-01-05T15:00:00Z,26.4966,-82.1479,2.075,32.52,1111122 
SCCF RECON,ioos:station:SCCF:12:1,2009-01-05T16:00:00Z,26.4966,-82.1479,2.06,32.63,1111122 
SCCF RECON,ioos:station:SCCF:12:1,2009-01-05T17:00:00Z,26.4966,-82.1479,2.046,32.59,1111122 
SCCF RECON,ioos:station:SCCF:12:1,2009-01-05T18:00:00Z,26.4966,-82.1479,2.031,32.62,1111122 
SCCF RECON,ioos:station:SCCF:12:1,2009-01-05T19:00:00Z,26.4966,-82.1479,2.068,32.67,1111122 
SCCF RECON,ioos:station:SCCF:12:1,2009-01-05T20:00:00Z,26.4966,-82.1479,2.126,32.68,1111122 
SCCF RECON,ioos:station:SCCF:12:1,2009-01-05T21:00:00Z,26.4966,-82.1479,2.207,32.66,1111122 
SCCF RECON,ioos:station:SCCF:12:1,2009-01-05T22:00:00Z,26.4966,-82.1479,2.292,32.63,1111122 
SCCF RECON,ioos:station:SCCF:12:1,2009-01-05T23:00:00Z,26.4966,-82.1479,2.35,32.75,1111122 
SCCF RECON,ioos:station:SCCF:12:1,2009-01-06T00:00:00Z,26.4966,-82.1479,2.38,32.86,1111122 
SCCF RECON,ioos:station:SCCF:12:1,2009-01-06T01:00:00Z,26.4966,-82.1479,2.35,32.89,1111122 
SCCF RECON,ioos:station:SCCF:12:1,2009-01-06T02:00:00Z,26.4966,-82.1479,2.29,32.89,1111122 
SCCF RECON,ioos:station:SCCF:12:1,2009-01-06T03:00:00Z,26.4966,-82.1479,2.2,32.89,1111122 
SCCF RECON,ioos:station:SCCF:12:1,2009-01-06T04:00:00Z,26.4966,-82.1479,2.09,32.83,1111122 
SCCF RECON,ioos:station:SCCF:12:1,2009-01-06T05:00:00Z,26.4966,-82.1479,1.97,32.8,1111122 
SCCF RECON,ioos:station:SCCF:12:1,2009-01-06T06:00:00Z,26.4966,-82.1479,1.87,32.68,1111122 
SCCF RECON,ioos:station:SCCF:12:1,2009-01-06T07:00:00Z,26.4966,-82.1479,1.76,32.62,1111122 
SCCF RECON,ioos:station:SCCF:12:1,2009-01-06T08:00:00Z,26.4966,-82.1479,1.68,32.56,1111122 
SCCF RECON,ioos:station:SCCF:12:1,2009-01-06T09:00:00Z,26.4966,-82.1479,1.65,32.51,1111122 
SCCF RECON,ioos:station:SCCF:12:1,2009-01-06T10:00:00Z,26.4966,-82.1479,1.733,32.62,1111122 
SCCF RECON,ioos:station:SCCF:12:1,2009-01-06T11:00:00Z,26.4966,-82.1479,1.86,32.62,1111122 
SCCF RECON,ioos:station:SCCF:12:1,2009-01-06T12:00:00Z,26.4966,-82.1479,1.96,32.6,1111122 
SCCF RECON,ioos:station:SCCF:12:1,2009-01-06T13:00:00Z,26.4966,-82.1479,2.03,32.58,1111122 
SCCF RECON,ioos:station:SCCF:12:1,2009-01-06T14:00:00Z,26.4966,-82.1479,2.08,32.6,1111122 
SCCF RECON,ioos:station:SCCF:12:1,2009-01-06T15:00:00Z,26.4966,-82.1479,2.105,32.82,1111122 
SCCF RECON,ioos:station:SCCF:12:1,2009-01-06T16:00:00Z,26.4966,-82.1479,2.114,32.7,1111122 
SCCF RECON,ioos:station:SCCF:12:1,2009-01-06T17:00:00Z,26.4966,-82.1479,2.105,32.68,1111122 
SCCF RECON,ioos:station:SCCF:12:1,2009-01-06T18:00:00Z,26.4966,-82.1479,2.08,32.75,1111122 
SCCF RECON,ioos:station:SCCF:12:1,2009-01-06T19:00:00Z,26.4966,-82.1479,2.067,32.76,1111122 
SCCF RECON,ioos:station:SCCF:12:1,2009-01-06T20:00:00Z,26.4966,-82.1479,2.084,32.76,1111122 
SCCF RECON,ioos:station:SCCF:12:1,2009-01-06T21:00:00Z,26.4966,-82.1479,2.151,32.76,1111122 
SCCF RECON,ioos:station:SCCF:12:1,2009-01-06T22:00:00Z,26.4966,-82.1479,2.25,32.76,1111122 
SCCF RECON,ioos:station:SCCF:12:1,2009-01-06T23:00:00Z,26.4966,-82.1479,2.32,32.75,1111122 
SCCF RECON,ioos:station:SCCF:12:1,2009-01-07T00:00:00Z,26.4966,-82.1479,2.376,32.75,1111122 
SCCF RECON,ioos:station:SCCF:12:1,2009-01-07T01:00:00Z,26.4966,-82.1479,2.387,32.61,1111122 
SCCF RECON,ioos:station:SCCF:12:1,2009-01-07T02:00:00Z,26.4966,-82.1479,2.38,32.51,1111122 
SCCF RECON,ioos:station:SCCF:12:1,2009-01-07T03:00:00Z,26.4966,-82.1479,2.321,32.66,1111122 
SCCF RECON,ioos:station:SCCF:12:1,2009-01-07T04:00:00Z,26.4966,-82.1479,2.23,32.73,1111122 
SCCF RECON,ioos:station:SCCF:12:1,2009-01-07T05:00:00Z,26.4966,-82.1479,2.111,32.82,1111122 
SCCF RECON,ioos:station:SCCF:12:1,2009-01-07T06:00:00Z,26.4966,-82.1479,1.984,32.83,1111122 
SCCF RECON,ioos:station:SCCF:12:1,2009-01-07T07:00:00Z,26.4966,-82.1479,1.86,32.82,1111122 
SCCF RECON,ioos:station:SCCF:12:1,2009-01-07T08:00:00Z,26.4966,-82.1479,1.74,32.8,1111122 
SCCF RECON,ioos:station:SCCF:12:1,2009-01-07T09:00:00Z,26.4966,-82.1479,1.64,32.74,1111122 
SCCF RECON,ioos:station:SCCF:12:1,2009-01-07T10:00:00Z,26.4966,-82.1479,1.6,32.76,1111122 
SCCF RECON,ioos:station:SCCF:12:1,2009-01-07T11:00:00Z,26.4966,-82.1479,1.69,32.74,1111122 
SCCF RECON,ioos:station:SCCF:12:1,2009-01-07T12:00:00Z,26.4966,-82.1479,1.819,32.71,1111122 
SCCF RECON,ioos:station:SCCF:12:1,2009-01-07T13:00:00Z,26.4966,-82.1479,1.929,32.74,1111122 
SCCF RECON,ioos:station:SCCF:12:1,2009-01-07T14:00:00Z,26.4966,-82.1479,2.03,32.76,1111122 
SCCF RECON,ioos:station:SCCF:12:1,2009-01-07T15:00:00Z,26.4966,-82.1479,2.11,32.8,1111122 
SCCF RECON,ioos:station:SCCF:12:1,2009-01-07T16:00:00Z,26.4966,-82.1479,2.149,32.93,1111122 
SCCF RECON,ioos:station:SCCF:12:1,2009-01-07T17:00:00Z,26.4966,-82.1479,2.166,33.0,1111122 
SCCF RECON,ioos:station:SCCF:12:1,2009-01-07T18:00:00Z,26.4966,-82.1479,2.132,33.16,1111122 
SCCF RECON,ioos:station:SCCF:12:1,2009-01-07T19:00:00Z,26.4966,-82.1479,2.12,33.34,1111122 
SCCF RECON,ioos:station:SCCF:12:1,2009-01-07T20:00:00Z,26.4966,-82.1479,2.174,33.38,1111122 
SCCF RECON,ioos:station:SCCF:12:1,2009-01-07T21:00:00Z,26.4966,-82.1479,2.113,33.36,1111122 
SCCF RECON,ioos:station:SCCF:12:1,2009-01-07T22:00:00Z,26.4966,-82.1479,2.133,33.01,1111122 
SCCF RECON,ioos:station:SCCF:12:1,2009-01-07T23:00:00Z,26.4966,-82.1479,2.152,32.79,1111122 
SCCF RECON,ioos:station:SCCF:12:1,2009-01-08T00:00:00Z,26.4966,-82.1479,2.206,32.69,1111122 
SCCF RECON,ioos:station:SCCF:12:1,2009-01-08T01:00:00Z,26.4966,-82.1479,2.242,32.51,1111122 
SCCF RECON,ioos:station:SCCF:12:1,2009-01-08T02:00:00Z,26.4966,-82.1479,2.26,32.53,1111122 
SCCF RECON,ioos:station:SCCF:12:1,2009-01-08T03:00:00Z,26.4966,-82.1479,2.27,32.59,1111122 
SCCF RECON,ioos:station:SCCF:12:1,2009-01-08T04:00:00Z,26.4966,-82.1479,2.23,32.6,1111122 
SCCF RECON,ioos:station:SCCF:12:1,2009-01-08T05:00:00Z,26.4966,-82.1479,2.121,32.55,1111122 
SCCF RECON,ioos:station:SCCF:12:1,2009-01-08T06:00:00Z,26.4966,-82.1479,1.977,32.54,1111122 
SCCF RECON,ioos:station:SCCF:12:1,2009-01-08T07:00:00Z,26.4966,-82.1479,1.85,32.63,1111122 
SCCF RECON,ioos:station:SCCF:12:1,2009-01-08T08:00:00Z,26.4966,-82.1479,1.723,32.67,1111122 
SCCF RECON,ioos:station:SCCF:12:1,2009-01-08T09:00:00Z,26.4966,-82.1479,1.607,32.69,1111122 
SCCF RECON,ioos:station:SCCF:12:1,2009-01-08T10:00:00Z,26.4966,-82.1479,1.51,32.73,1111122 
SCCF RECON,ioos:station:SCCF:12:1,2009-01-08T11:00:00Z,26.4966,-82.1479,1.47,32.73,1111122 
SCCF RECON,ioos:station:SCCF:12:1,2009-01-08T12:00:00Z,26.4966,-82.1479,1.55,32.75,1111122 
SCCF RECON,ioos:station:SCCF:12:1,2009-01-08T13:00:00Z,26.4966,-82.1479,1.707,32.69,1111122 
SCCF RECON,ioos:station:SCCF:12:1,2009-01-08T14:00:00Z,26.4966,-82.1479,1.86,32.66,1111122 
SCCF RECON,ioos:station:SCCF:12:1,2009-01-08T15:00:00Z,26.4966,-82.1479,1.997,32.74,1111122 
SCCF RECON,ioos:station:SCCF:12:1,2009-01-08T16:00:00Z,26.4966,-82.1479,2.1,32.74,1111122 
SCCF RECON,ioos:station:SCCF:12:1,2009-01-08T17:00:00Z,26.4966,-82.1479,2.16,32.76,1111122 
SCCF RECON,ioos:station:SCCF:12:1,2009-01-08T18:00:00Z,26.4966,-82.1479,2.16,32.68,1111122 
SCCF RECON,ioos:station:SCCF:12:1,2009-01-08T19:00:00Z,26.4966,-82.1479,2.102,32.67,1111122 
SCCF RECON,ioos:station:SCCF:12:1,2009-01-08T20:00:00Z,26.4966,-82.1479,2.05,32.73,1111122 
SCCF RECON,ioos:station:SCCF:12:1,2009-01-08T21:00:00Z,26.4966,-82.1479,2.062,32.71,1111122 
SCCF RECON,ioos:station:SCCF:12:1,2009-01-08T22:00:00Z,26.4966,-82.1479,2.119,32.65,1111122 
SCCF RECON,ioos:station:SCCF:12:1,2009-01-08T23:00:00Z,26.4966,-82.1479,2.191,32.73,1111122 
SCCF RECON,ioos:station:SCCF:12:1,2009-01-09T00:00:00Z,26.4966,-82.1479,2.276,32.75,1111122 
SCCF RECON,ioos:station:SCCF:12:1,2009-01-09T01:00:00Z,26.4966,-82.1479,2.34,32.74,1111122 
SCCF RECON,ioos:station:SCCF:12:1,2009-01-09T02:00:00Z,26.4966,-82.1479,2.37,32.77,1111122 
SCCF RECON,ioos:station:SCCF:12:1,2009-01-09T03:00:00Z,26.4966,-82.1479,2.39,32.79,1111122 
SCCF RECON,ioos:station:SCCF:12:1,2009-01-09T04:00:00Z,26.4966,-82.1479,2.39,32.77,1111122 
SCCF RECON,ioos:station:SCCF:12:1,2009-01-09T05:00:00Z,26.4966,-82.1479,2.32,32.76,1111122 
SCCF RECON,ioos:station:SCCF:12:1,2009-01-09T06:00:00Z,26.4966,-82.1479,2.188,32.74,1111122 
SCCF RECON,ioos:station:SCCF:12:1,2009-01-09T07:00:00Z,26.4966,-82.1479,2.03,32.74,1111122 
SCCF RECON,ioos:station:SCCF:12:1,2009-01-09T08:00:00Z,26.4966,-82.1479,1.89,32.75,1111122 
SCCF RECON,ioos:station:SCCF:12:1,2009-01-09T09:00:00Z,26.4966,-82.1479,1.75,32.76,1111122 
SCCF RECON,ioos:station:SCCF:12:1,2009-01-09T10:00:00Z,26.4966,-82.1479,1.619,32.77,1111122 
SCCF RECON,ioos:station:SCCF:12:1,2009-01-09T11:00:00Z,26.4966,-82.1479,1.51,32.79,1111122 
SCCF RECON,ioos:station:SCCF:12:1,2009-01-09T12:00:00Z,26.4966,-82.1479,1.44,32.85,1111122 
SCCF RECON,ioos:station:SCCF:12:1,2009-01-09T13:00:00Z,26.4966,-82.1479,1.501,32.95,1111122 
SCCF RECON,ioos:station:SCCF:12:1,2009-01-09T14:00:00Z,26.4966,-82.1479,1.681,32.88,1111122 
SCCF RECON,ioos:station:SCCF:12:1,2009-01-09T15:00:00Z,26.4966,-82.1479,1.83,32.9,1111122 
SCCF RECON,ioos:station:SCCF:12:1,2009-01-09T16:00:00Z,26.4966,-82.1479,1.963,32.87,1111122 
SCCF RECON,ioos:station:SCCF:12:1,2009-01-09T17:00:00Z,26.4966,-82.1479,2.049,32.83,1111122 
SCCF RECON,ioos:station:SCCF:12:1,2009-01-09T18:00:00Z,26.4966,-82.1479,2.09,32.77,1111122 
SCCF RECON,ioos:station:SCCF:12:1,2009-01-09T19:00:00Z,26.4966,-82.1479,2.064,32.77,1111122 
SCCF RECON,ioos:station:SCCF:12:1,2009-01-09T20:00:00Z,26.4966,-82.1479,2.006,32.76,1111122 
SCCF RECON,ioos:station:SCCF:12:1,2009-01-09T21:00:00Z,26.4966,-82.1479,1.99,32.77,1111122 
SCCF RECON,ioos:station:SCCF:12:1,2009-01-09T22:00:00Z,26.4966,-82.1479,2.038,32.78,1111122 
SCCF RECON,ioos:station:SCCF:12:1,2009-01-09T23:00:00Z,26.4966,-82.1479,2.091,32.76,1111122 
SCCF RECON,ioos:station:SCCF:12:1,2009-01-10T00:00:00Z,26.4966,-82.1479,2.17,32.76,1111122 
SCCF RECON,ioos:station:SCCF:12:1,2009-01-10T01:00:00Z,26.4966,-82.1479,2.28,32.76,1111122 
SCCF RECON,ioos:station:SCCF:12:1,2009-01-10T02:00:00Z,26.4966,-82.1479,2.381,32.76,1111122 
SCCF RECON,ioos:station:SCCF:12:1,2009-01-10T03:00:00Z,26.4966,-82.1479,2.457,32.76,1111122 
SCCF RECON,ioos:station:SCCF:12:1,2009-01-10T04:00:00Z,26.4966,-82.1479,2.501,32.75,1111122 
SCCF RECON,ioos:station:SCCF:12:1,2009-01-10T05:00:00Z,26.4966,-82.1479,2.48,32.82,1111122 
SCCF RECON,ioos:station:SCCF:12:1,2009-01-10T06:00:00Z,26.4966,-82.1479,2.4,32.79,1111122 
SCCF RECON,ioos:station:SCCF:12:1,2009-01-10T07:00:00Z,26.4966,-82.1479,2.26,32.89,1111122 
SCCF RECON,ioos:station:SCCF:12:1,2009-01-10T08:00:00Z,26.4966,-82.1479,2.097,32.88,1111122 
SCCF RECON,ioos:station:SCCF:12:1,2009-01-10T09:00:00Z,26.4966,-82.1479,1.941,32.87,1111122 
SCCF RECON,ioos:station:SCCF:12:1,2009-01-10T10:00:00Z,26.4966,-82.1479,1.8,32.85,1111122 
SCCF RECON,ioos:station:SCCF:12:1,2009-01-10T11:00:00Z,26.4966,-82.1479,1.664,32.83,1111122 
SCCF RECON,ioos:station:SCCF:12:1,2009-01-10T12:00:00Z,26.4966,-82.1479,1.552,32.79,1111122 
SCCF RECON,ioos:station:SCCF:12:1,2009-01-10T13:00:00Z,26.4966,-82.1479,1.496,32.8,1111122 
SCCF RECON,ioos:station:SCCF:12:1,2009-01-10T14:00:00Z,26.4966,-82.1479,1.625,32.8,1111122 
SCCF RECON,ioos:station:SCCF:12:1,2009-01-10T15:00:00Z,26.4966,-82.1479,1.81,32.87,1111122 
SCCF RECON,ioos:station:SCCF:12:1,2009-01-10T16:00:00Z,26.4966,-82.1479,1.941,32.85,1111122 
SCCF RECON,ioos:station:SCCF:12:1,2009-01-10T17:00:00Z,26.4966,-82.1479,2.049,32.81,1111122 
SCCF RECON,ioos:station:SCCF:12:1,2009-01-10T18:00:00Z,26.4966,-82.1479,2.111,32.78,1111122 
SCCF RECON,ioos:station:SCCF:12:1,2009-01-10T19:00:00Z,26.4966,-82.1479,2.139,32.82,1111122 
SCCF RECON,ioos:station:SCCF:12:1,2009-01-10T20:00:00Z,26.4966,-82.1479,2.098,32.71,1111122 
SCCF RECON,ioos:station:SCCF:12:1,2009-01-10T21:00:00Z,26.4966,-82.1479,2.046,32.62,1111122 
SCCF RECON,ioos:station:SCCF:12:1,2009-01-10T22:00:00Z,26.4966,-82.1479,2.05,32.59,1111122 
SCCF RECON,ioos:station:SCCF:12:1,2009-01-10T23:00:00Z,26.4966,-82.1479,2.092,32.58,1111122 
SCCF RECON,ioos:station:SCCF:12:1,2009-01-11T00:00:00Z,26.4966,-82.1479,2.14,32.61,1111122 
SCCF RECON,ioos:station:SCCF:12:1,2009-01-11T01:00:00Z,26.4966,-82.1479,2.22,32.72,1111122 
SCCF RECON,ioos:station:SCCF:12:1,2009-01-11T02:00:00Z,26.4966,-82.1479,2.33,32.81,1111122 
SCCF RECON,ioos:station:SCCF:12:1,2009-01-11T03:00:00Z,26.4966,-82.1479,2.44,32.82,1111122 
SCCF RECON,ioos:station:SCCF:12:1,2009-01-11T04:00:00Z,26.4966,-82.1479,2.53,32.82,1111122 
SCCF RECON,ioos:station:SCCF:12:1,2009-01-11T05:00:00Z,26.4966,-82.1479,2.58,32.84,1111122 
SCCF RECON,ioos:station:SCCF:12:1,2009-01-11T06:00:00Z,26.4966,-82.1479,2.55,32.74,1111122 
SCCF RECON,ioos:station:SCCF:12:1,2009-01-11T07:00:00Z,26.4966,-82.1479,2.43,32.77,1111122 
SCCF RECON,ioos:station:SCCF:12:1,2009-01-11T08:00:00Z,26.4966,-82.1479,2.27,32.68,1111122 
SCCF RECON,ioos:station:SCCF:12:1,2009-01-11T09:00:00Z,26.4966,-82.1479,2.1,32.68,1111122 
SCCF RECON,ioos:station:SCCF:12:1,2009-01-11T10:00:00Z,26.4966,-82.1479,1.94,32.7,1111122 
SCCF RECON,ioos:station:SCCF:12:1,2009-01-11T11:00:00Z,26.4966,-82.1479,1.79,32.71,1111122 
SCCF RECON,ioos:station:SCCF:12:1,2009-01-11T12:00:00Z,26.4966,-82.1479,1.654,32.74,1111122 
SCCF RECON,ioos:station:SCCF:12:1,2009-01-11T13:00:00Z,26.4966,-82.1479,1.55,32.8,1111122 
SCCF RECON,ioos:station:SCCF:12:1,2009-01-11T14:00:00Z,26.4966,-82.1479,1.521,32.77,1111122 
SCCF RECON,ioos:station:SCCF:12:1,2009-01-11T15:00:00Z,26.4966,-82.1479,1.69,32.74,1111122 
SCCF RECON,ioos:station:SCCF:12:1,2009-01-11T16:00:00Z,26.4966,-82.1479,1.86,32.73,1111122 
SCCF RECON,ioos:station:SCCF:12:1,2009-01-11T17:00:00Z,26.4966,-82.1479,1.989,32.74,1111122 